STARLINK-34597, 64738

Orbit data source: Space-Track

STARLINK-34597, 64738 is a payload satellite owned by SpaceX/Seattle (US) in LEO that was launched on Wed, 02 Jul 2025 UTC via an FALCON 9 launch vehicle from the Air Force Eastern Test Range (AFETR). Payload-class satellites include a variety of spacecraft equipped with specific instruments for various scientific and technological missions. These include communications satellites like Starlink; space stations such as the ISS; scientific satellites like the Hubble; Earth observation satellites from companies like Planet Labs, Umbra, and HawkEye 360; GPS; miniature CubeSats for education and research; and military/defense satellites.

Loading next visibility...
Identifier
64738, 2025-144Q
Orbit
LEO
Last TLE update
13 hours ago
Origin
Manufacturer
SpaceX/Seattle
Mission
Operational spacecraft
Bus & Motor
STARLINK V2MO, Unknown motor
Mass
575 kg wet, ~530 kg dry
Launch date (UTC)
2025-07-02 (1 week ago)
Launch vehicle
FALCON 9
Launch site
Air Force Eastern Test Range (AFETR)
Object type
Payload
Rocket body
Debris
Shape & HBR
Unknown
Radar Cross Section
RCS unknown

Expand to show TLE details & history

TLE from 13 hours ago
0 STARLINK-34597
1 64738U 25144Q   25191.66668981 -.01210562  00000-0 -48555-2 0  9990
2 64738  53.1541 231.7213 0000795  87.5854   7.3167 15.88145715  2557
Epoch: 2025-07-10T16:00Z
TLE epoch observation values (Epoch: 2025-07-10T16:00:01.999Z)
Latitude
53.03057°
Longitude
161.03404°
Altitude
313.436 km
Speed
7.727 km/s
True Right ascension
21h 59m 29s
True Declination
52° 51' 15"
Sunlit
Object was in daylight at epoch
Visualization orbit readout
Latitude
-11.14117°
Longitude
-111.31595°
Altitude
314.518 km
Speed
7.72 km/s
Apparent Right ascension
04h 14m 25s
Apparent Declination
-25° 12' 19"
Sunlit
Object is in daylight
Visualization observer readout
Local Sidereal Time
16:47:05
Azimuth
27.396° NE
Elevation
-73.776°
Doppler factor
1
Orbital elements
Apogee altitude
308.277 km
Perigee altitude
307.214 km
Semi-major axis
6,685.882 km
Eccentricity
0.00008
Inclination
53.1541°
RAAN
231.7213°
Arg. of periapsis
87.5854°
True anomaly
Unknown
Mean anomaly
7.3167°
Eccentric anomaly
Unknown
Mean motion
3.97013 °/min
Orbital period
90.68 mins
BSTAR
-0.0048555
Loading maneuver chart data...
Loading SW <> Apogee altitude chart data...
Loading historical data...
Loading historical data...
Loading historical data...
Loading historical data...
Loading historical data...
Loading historical data...
Loading historical data...

STARLINK-34597 Visibility forecast

Observer location: undefined°, undefined°

Span
Click to sort rows by Start time (UTC) header in descending order
Start Az.
Max El. time (UTC)
Max El. Az.
Max El.
End time (UTC)
End Az.
4 mins2025-07-11 05:23:11.797Z220.535° SW2025-07-11 05:25:11.797Z137.385° SSE43.125°2025-07-11 05:27:11.797Z55.858° ENE
|